,,Stat6,,Stat2,,Stat8,,Stat9,,Stat10,,Wind1,,Wind1,
time,status,PA1M_AVG,status,PR1M_SUM,status,RH1M_AVG,status,SR1M_AVG,status,TA1M_AVG,status,W1dAve1m,status,W1sAve1m,
2004-08-10, 00:00:00,VALID,919.709,VALID,0,VALID,98.7592,VALID,0,VALID,20.4506,VALID,17,VALID,0,
2004-08-10, 00:01:00,VALID,919.691,VALID,0,VALID,98.7096,VALID,0,VALID,20.4374,VALID,17,VALID,0,
2004-08-10, 00:02:00,VALID,919.669,VALID,0,VALID,98.6091,VALID,0,VALID,20.418,VALID,17,VALID,0.0146949,
2004-08-10, 00:03:00,VALID,919.665,VALID,0,VALID,98.1768,VALID,-0.0169808,VALID,20.3666,VALID,27,VALID,0.522852,
2004-08-10, 00:04:00,VALID,919.658,VALID,0,VALID,97.8945,VALID,-0.0339617,VALID,20.2921,VALID,43,VALID,0.735328,
2004-08-10, 00:05:00,VALID,919.668,VALID,0,VALID,98.2098,VALID,-0.0169808,VALID,20.2861,VALID,52,VALID,0.724144,
2004-08-10, 00:06:00,VALID,919.659,VALID,0,VALID,98.6663,VALID,0,VALID,20.3088,VALID,68,VALID,0.576265,
2004-08-10, 00:07:00,VALID,919.664,VALID,0,VALID,98.9817,VALID,0.0169808,VALID,20.3281,VALID,91,VALID,0.621094,
2004-08-10, 00:08:00,VALID,919.662,VALID,0,VALID,99.1534,VALID,0,VALID,20.3311,VALID,106,VALID,0.40718,
2004-08-10, 00:09:00,VALID,919.671,VALID,0,VALID,99.222,VALID,0,VALID,20.315,VALID,111,VALID,0.502604,
2004-08-10, 00:10:00,VALID,919.666,VALID,0,VALID,99.3136,VALID,0,VALID,20.3179,VALID,124,VALID,0.572409,
2004-08-10, 00:11:00,VALID,919.667,VALID,0,VALID,99.3403,VALID,0,VALID,20.3082,VALID,127,VALID,0.234561,
2004-08-10, 00:12:00,VALID,919.652,VALID,0,VALID,99.2843,VALID,0,VALID,20.2948,VALID,127,VALID,0.325945,
2004-08-10, 00:13:00,VALID,919.648,VALID,0,VALID,99.2691,VALID,0.0169808,VALID,20.2829,VALID,127,VALID,0.283913,
2004-08-10, 00:14:00,VALID,919.615,VALID,0,VALID,99.2437,VALID,0.0169808,VALID,20.2466,VALID,126,VALID,0.17721,
2004-08-10, 00:15:00,VALID,919.615,VALID,0,VALID,99.2487,VALID,0,VALID,20.2404,VALID,126,VALID,0.172602,
2004-08-10, 00:16:00,VALID,919.587,VALID,0,VALID,99.3454,VALID,0.0169808,VALID,20.2178,VALID,126,VALID,0.152344,
2004-08-10, 00:17:00,VALID,919.576,VALID,0,VALID,99.4433,VALID,0,VALID,20.2146,VALID,126,VALID,0.354725,
2004-08-10, 00:18:00,VALID,919.563,VALID,0,VALID,99.5056,VALID,0,VALID,20.2014,VALID,118,VALID,0.607143,
2004-08-10, 00:19:00,VALID,919.554,VALID,0,VALID,99.8629,VALID,0,VALID,20.2439,VALID,113,VALID,0.684261,
2004-08-10, 00:20:00,VALID,919.543,VALID,0,VALID,99.9329,VALID,0,VALID,20.2926,VALID,113,VALID,0.597384,
2004-08-10, 00:21:00,VALID,919.532,VALID,0,VALID,99.9517,VALID,0,VALID,20.2856,VALID,113,VALID,0.666493,
2004-08-10, 00:22:00,VALID,919.514,VALID,0,VALID,99.9908,VALID,0,VALID,20.2988,VALID,113,VALID,0.605741,
2004-08-10, 00:23:00,VALID,919.508,VALID,0,VALID,100,VALID,0,VALID,20.3082,VALID,113,VALID,0.600586,
2004-08-10, 00:24:00,VALID,919.476,VALID,0,VALID,100,VALID,0,VALID,20.3085,VALID,113,VALID,0.808321,
2004-08-10, 00:25:00,VALID,919.458,VALID,0,VALID,100,VALID,0,VALID,20.315,VALID,113,VALID,0.63151,
2004-08-10, 00:26:00,VALID,919.447,VALID,0,VALID,100,VALID,0,VALID,20.3082,VALID,113,VALID,0.360677,
2004-08-10, 00:27:00,VALID,919.41,VALID,0,VALID,100,VALID,-0.0169808,VALID,20.3055,VALID,113,VALID,0.270774,
2004-08-10, 00:28:00,VALID,919.402,VALID,0,VALID,100,VALID,0,VALID,20.3018,VALID,113,VALID,0.12593,
2004-08-10, 00:29:00,VALID,919.383,VALID,0,VALID,100,VALID,0,VALID,20.2983,VALID,113,VALID,0.124238,
2004-08-10, 00:30:00,VALID,919.368,VALID,0,VALID,100,VALID,-0.0169808,VALID,20.3023,VALID,113,VALID,0.164608,
2004-08-10, 00:31:00,VALID,919.344,VALID,0,VALID,100,VALID,-0.101885,VALID,20.3036,VALID,113,VALID,0.0943359,
2004-08-10, 00:32:00,VALID,919.334,VALID,0,VALID,100,VALID,-0.101885,VALID,20.3001,VALID,113,VALID,0,
2004-08-10, 00:33:00,VALID,919.313,VALID,0,VALID,100,VALID,-0.118866,VALID,20.2969,VALID,113,VALID,0,
2004-08-10, 00:34:00,VALID,919.306,VALID,0,VALID,100,VALID,-0.101885,VALID,20.2678,VALID,113,VALID,0,
2004-08-10, 00:35:00,VALID,919.303,VALID,0,VALID,100,VALID,-0.0849042,VALID,20.2449,VALID,113,VALID,0,
2004-08-10, 00:36:00,VALID,919.304,VALID,0,VALID,100,VALID,-0.0849042,VALID,20.2387,VALID,113,VALID,0,
2004-08-10, 00:37:00,VALID,919.301,VALID,0,VALID,100,VALID,-0.101885,VALID,20.229,VALID,113,VALID,0,
2004-08-10, 00:38:00,VALID,919.296,VALID,0,VALID,99.9647,VALID,-0.0679233,VALID,20.2124,VALID,113,VALID,0,
2004-08-10, 00:39:00,VALID,919.3,VALID,0,VALID,99.9809,VALID,0,VALID,20.1987,VALID,113,VALID,0,
2004-08-10, 00:40:00,VALID,919.287,VALID,0,VALID,99.9799,VALID,0,VALID,20.2052,VALID,113,VALID,0.0396076,
2004-08-10, 00:41:00,VALID,919.279,VALID,0,VALID,99.999,VALID,0.0169808,VALID,20.2183,VALID,113,VALID,0,
2004-08-10, 00:42:00,VALID,919.261,VALID,0,VALID,100,VALID,0.0169808,VALID,20.2439,VALID,113,VALID,0,
2004-08-10, 00:43:00,VALID,919.255,VALID,0,VALID,100,VALID,-0.0169808,VALID,20.27,VALID,113,VALID,0,
2004-08-10, 00:44:00,VALID,919.243,VALID,0,VALID,100,VALID,0.0339617,VALID,20.2854,VALID,113,VALID,0,
2004-08-10, 00:45:00,VALID,919.244,VALID,0,VALID,100,VALID,0.0169808,VALID,20.3018,VALID,113,VALID,0,
2004-08-10, 00:46:00,VALID,919.236,VALID,0,VALID,100,VALID,0.0169808,VALID,20.305,VALID,113,VALID,0,
2004-08-10, 00:47:00,VALID,919.243,VALID,0,VALID,99.9906,VALID,0,VALID,20.302,VALID,113,VALID,0,
2004-08-10, 00:48:00,VALID,919.225,VALID,0,VALID,99.9341,VALID,0.0169808,VALID,20.3025,VALID,113,VALID,0,
2004-08-10, 00:49:00,VALID,919.211,VALID,0,VALID,99.9227,VALID,0,VALID,20.2757,VALID,113,VALID,0,
2004-08-10, 00:50:00,VALID,919.189,VALID,0,VALID,99.9443,VALID,0.0339617,VALID,20.2822,VALID,113,VALID,0,
2004-08-10, 00:51:00,VALID,919.167,VALID,0,VALID,99.9494,VALID,0,VALID,20.2854,VALID,113,VALID,0,
2004-08-10, 00:52:00,VALID,919.143,VALID,0,VALID,99.9379,VALID,0.0169808,VALID,20.2918,VALID,113,VALID,0,
2004-08-10, 00:53:00,VALID,919.118,VALID,0,VALID,99.9176,VALID,0,VALID,20.2953,VALID,113,VALID,0,
2004-08-10, 00:54:00,VALID,919.09,VALID,0,VALID,99.8553,VALID,0,VALID,20.2921,VALID,113,VALID,0.0374273,
2004-08-10, 00:55:00,VALID,919.073,VALID,0,VALID,99.765,VALID,-0.0169808,VALID,20.2958,VALID,113,VALID,0.20816,
2004-08-10, 00:56:00,VALID,919.058,VALID,0,VALID,99.6951,VALID,0,VALID,20.2797,VALID,113,VALID,0.231136,
2004-08-10, 00:57:00,VALID,919.052,VALID,0,VALID,99.6658,VALID,0,VALID,20.2601,VALID,113,VALID,0.276972,
2004-08-10, 00:58:00,VALID,919.043,VALID,0,VALID,99.6188,VALID,0,VALID,20.2469,VALID,113,VALID,0.261719,
2004-08-10, 00:59:00,VALID,919.039,VALID,0,VALID,99.6417,VALID,0,VALID,20.2501,VALID,144,VALID,0.297447,
2004-08-10, 01:00:00,VALID,919.031,VALID,0,VALID,99.6684,VALID,0.0169808,VALID,20.2533,VALID,145,VALID,0,
2004-08-10, 01:01:00,VALID,919.017,VALID,0,VALID,99.5832,VALID,0,VALID,20.2399,VALID,145,VALID,0,
2004-08-10, 01:02:00,VALID,919.006,VALID,0,VALID,99.2119,VALID,0,VALID,20.1759,VALID,145,VALID,0,
2004-08-10, 01:03:00,VALID,918.993,VALID,0,VALID,99.1203,VALID,0,VALID,20.118,VALID,145,VALID,0,
2004-08-10, 01:04:00,VALID,918.983,VALID,0,VALID,99.2208,VALID,-0.0169808,VALID,20.1341,VALID,145,VALID,0,
2004-08-10, 01:05:00,VALID,918.987,VALID,0,VALID,99.3314,VALID,0,VALID,20.1306,VALID,145,VALID,0,
2004-08-10, 01:06:00,VALID,918.984,VALID,0,VALID,99.1979,VALID,0,VALID,20.1244,VALID,145,VALID,0,
2004-08-10, 01:07:00,VALID,918.97,VALID,0,VALID,99.0605,VALID,0,VALID,20.0956,VALID,145,VALID,0,
2004-08-10, 01:08:00,VALID,918.973,VALID,0,VALID,98.9779,VALID,-0.0339617,VALID,20.0636,VALID,145,VALID,0.0120908,
2004-08-10, 01:09:00,VALID,918.955,VALID,0,VALID,98.9753,VALID,-0.101885,VALID,20.045,VALID,145,VALID,0,
2004-08-10, 01:10:00,VALID,918.945,VALID,0,VALID,99.1979,VALID,-0.101885,VALID,20.0582,VALID,136,VALID,0.275618,
2004-08-10, 01:11:00,VALID,918.926,VALID,0,VALID,99.3861,VALID,-0.101885,VALID,20.0934,VALID,53,VALID,0.647743,
2004-08-10, 01:12:00,VALID,918.899,VALID,0,VALID,99.3657,VALID,-0.101885,VALID,20.1098,VALID,47,VALID,0.798264,
2004-08-10, 01:13:00,VALID,918.884,VALID,0,VALID,99.3187,VALID,-0.101885,VALID,20.1034,VALID,45,VALID,0.886433,
2004-08-10, 01:14:00,VALID,918.86,VALID,0,VALID,99.2754,VALID,-0.0849042,VALID,20.1066,VALID,45,VALID,0.906064,
2004-08-10, 01:15:00,VALID,918.835,VALID,0,VALID,99.3377,VALID,-0.0849042,VALID,20.1098,VALID,47,VALID,0.903773,
2004-08-10, 01:16:00,VALID,918.818,VALID,0,VALID,99.4382,VALID,-0.101885,VALID,20.1168,VALID,56,VALID,0.990141,
2004-08-10, 01:17:00,VALID,918.802,VALID,0,VALID,99.5285,VALID,-0.101885,VALID,20.126,VALID,71,VALID,0.974712,
2004-08-10, 01:18:00,VALID,918.807,VALID,0,VALID,99.6226,VALID,-0.101885,VALID,20.1128,VALID,89,VALID,0.68843,
2004-08-10, 01:19:00,VALID,918.804,VALID,0,VALID,99.6429,VALID,-0.0849042,VALID,20.1096,VALID,93,VALID,0.666159,
2004-08-10, 01:20:00,VALID,918.798,VALID,0,VALID,99.7192,VALID,-0.101885,VALID,20.1138,VALID,78,VALID,0.455128,
2004-08-10, 01:21:00,VALID,918.792,VALID,0,VALID,99.8006,VALID,-0.101885,VALID,20.1068,VALID,70,VALID,0.380273,
2004-08-10, 01:22:00,VALID,918.777,VALID,0,VALID,99.8591,VALID,-0.118866,VALID,20.0937,VALID,67,VALID,0.398793,
2004-08-10, 01:23:00,VALID,918.769,VALID,0,VALID,99.8553,VALID,-0.0679233,VALID,20.1031,VALID,26,VALID,0.662695,
2004-08-10, 01:24:00,VALID,918.759,VALID,0,VALID,99.8311,VALID,-0.0169808,VALID,20.0961,VALID,11,VALID,1.11291,
2004-08-10, 01:25:00,VALID,918.75,VALID,0,VALID,99.7803,VALID,-0.0169808,VALID,20.0867,VALID,10,VALID,0.919922,
2004-08-10, 01:26:00,VALID,918.73,VALID,0,VALID,99.7968,VALID,-0.0509425,VALID,20.0738,VALID,11,VALID,0.664444,
2004-08-10, 01:27:00,VALID,918.709,VALID,0,VALID,99.8337,VALID,-0.0169808,VALID,20.074,VALID,19,VALID,0.628472,
2004-08-10, 01:28:00,VALID,918.697,VALID,0,VALID,99.8235,VALID,-0.0339617,VALID,20.0576,VALID,27,VALID,0.582442,
2004-08-10, 01:29:00,VALID,918.671,VALID,0,VALID,99.807,VALID,-0.0679233,VALID,20.048,VALID,27,VALID,0.549893,
2004-08-10, 01:30:00,VALID,918.663,VALID,0,VALID,99.7917,VALID,-0.0509425,VALID,20.0383,VALID,27,VALID,0.441692,
2004-08-10, 01:31:00,VALID,918.658,VALID,0,VALID,99.8197,VALID,-0.0339617,VALID,20.0219,VALID,27,VALID,0.392299,
2004-08-10, 01:32:00,VALID,918.64,VALID,0,VALID,99.7879,VALID,-0.0509425,VALID,20.0254,VALID,22,VALID,0.52798,
2004-08-10, 01:33:00,VALID,918.651,VALID,0,VALID,99.7243,VALID,-0.0169808,VALID,20.006,VALID,13,VALID,0.509766,
2004-08-10, 01:34:00,VALID,918.641,VALID,0,VALID,99.7052,VALID,0.0169808,VALID,19.9831,VALID,4,VALID,0.507813,
2004-08-10, 01:35:00,VALID,918.632,VALID,0,VALID,99.7408,VALID,-0.0169808,VALID,19.9672,VALID,348,VALID,0.330078,
2004-08-10, 01:36:00,VALID,918.62,VALID,0,VALID,99.7828,VALID,-0.0679233,VALID,19.9675,VALID,348,VALID,0.0204861,
2004-08-10, 01:37:00,VALID,918.613,VALID,0,VALID,99.8248,VALID,-0.0679233,VALID,19.9615,VALID,348,VALID,0,
2004-08-10, 01:38:00,VALID,918.613,VALID,0,VALID,99.8527,VALID,-0.0679233,VALID,19.9645,VALID,348,VALID,0.00109012,
2004-08-10, 01:39:00,VALID,918.607,VALID,0,VALID,99.9036,VALID,-0.0169808,VALID,19.9511,VALID,348,VALID,0.116425,
2004-08-10, 01:40:00,VALID,918.603,VALID,0,VALID,99.9379,VALID,-0.0169808,VALID,19.9677,VALID,348,VALID,0.0891335,
2004-08-10, 01:41:00,VALID,918.611,VALID,0,VALID,99.9799,VALID,-0.0169808,VALID,19.9546,VALID,348,VALID,0.103693,
2004-08-10, 01:42:00,VALID,918.612,VALID,0,VALID,99.9969,VALID,-0.0509425,VALID,19.9578,VALID,348,VALID,0.0422247,
2004-08-10, 01:43:00,VALID,918.614,VALID,0,VALID,100,VALID,-0.0509425,VALID,19.9513,VALID,348,VALID,0.204799,
2004-08-10, 01:44:00,VALID,918.614,VALID,0,VALID,99.9695,VALID,-0.0509425,VALID,19.9486,VALID,348,VALID,0.211648,
2004-08-10, 01:45:00,VALID,918.609,VALID,0,VALID,99.986,VALID,-0.0509425,VALID,19.9315,VALID,348,VALID,0.157138,
2004-08-10, 01:46:00,VALID,918.58,VALID,0,VALID,99.9964,VALID,-0.0169808,VALID,19.9218,VALID,348,VALID,0.175223,
2004-08-10, 01:47:00,VALID,918.579,VALID,0,VALID,100,VALID,0,VALID,19.9451,VALID,348,VALID,0.00961538,
2004-08-10, 01:48:00,VALID,918.563,VALID,0,VALID,100,VALID,-0.0169808,VALID,19.9576,VALID,348,VALID,0,
2004-08-10, 01:49:00,VALID,918.538,VALID,0,VALID,100,VALID,-0.0169808,VALID,19.964,VALID,348,VALID,0.0513393,
2004-08-10, 01:50:00,VALID,918.514,VALID,0,VALID,100,VALID,0,VALID,19.9543,VALID,348,VALID,0,
2004-08-10, 01:51:00,VALID,918.49,VALID,0,VALID,100,VALID,-0.0339617,VALID,19.9417,VALID,348,VALID,0,
2004-08-10, 01:52:00,VALID,918.48,VALID,0,VALID,100,VALID,-0.0679233,VALID,19.932,VALID,348,VALID,0,
2004-08-10, 01:53:00,VALID,918.468,VALID,0,VALID,100,VALID,0,VALID,19.925,VALID,348,VALID,0,
2004-08-10, 01:54:00,VALID,918.46,VALID,0,VALID,100,VALID,-0.0339617,VALID,19.9188,VALID,348,VALID,0,
2004-08-10, 01:55:00,VALID,918.452,VALID,0,VALID,100,VALID,-0.0509425,VALID,19.9123,VALID,348,VALID,0,
2004-08-10, 01:56:00,VALID,918.438,VALID,0,VALID,99.9964,VALID,0,VALID,19.9158,VALID,348,VALID,0,
2004-08-10, 01:57:00,VALID,918.422,VALID,0,VALID,99.9858,VALID,-0.0169808,VALID,19.8935,VALID,348,VALID,0,
2004-08-10, 01:58:00,VALID,918.397,VALID,0,VALID,99.9583,VALID,-0.0339617,VALID,19.8801,VALID,348,VALID,0,
2004-08-10, 01:59:00,VALID,918.369,VALID,0,VALID,99.9761,VALID,-0.0169808,VALID,19.89,VALID,348,VALID,0,
2004-08-10, 02:00:00,VALID,918.346,VALID,0,VALID,99.986,VALID,-0.0679233,VALID,19.8935,VALID,348,VALID,0,
2004-08-10, 02:01:00,VALID,918.317,VALID,0,VALID,99.9809,VALID,-0.0339617,VALID,19.8733,VALID,348,VALID,0,
2004-08-10, 02:02:00,VALID,918.308,VALID,0,VALID,99.9634,VALID,-0.0339617,VALID,19.8642,VALID,348,VALID,0.181836,
2004-08-10, 02:03:00,VALID,918.278,VALID,0,VALID,99.9786,VALID,-0.0169808,VALID,19.8483,VALID,348,VALID,0.399962,
2004-08-10, 02:04:00,VALID,918.258,VALID,0,VALID,99.9672,VALID,-0.0339617,VALID,19.8453,VALID,348,VALID,0.351381,
2004-08-10, 02:05:00,VALID,918.257,VALID,0,VALID,99.9748,VALID,-0.0169808,VALID,19.8289,VALID,348,VALID,0.422396,
2004-08-10, 02:06:00,VALID,918.225,VALID,0,VALID,99.9863,VALID,-0.0169808,VALID,19.8125,VALID,347,VALID,0.54851,
2004-08-10, 02:07:00,VALID,918.201,VALID,0,VALID,99.9886,VALID,0,VALID,19.8095,VALID,347,VALID,0.428125,
2004-08-10, 02:08:00,VALID,918.18,VALID,0,VALID,99.9847,VALID,-0.0169808,VALID,19.7767,VALID,347,VALID,0.150981,
2004-08-10, 02:09:00,VALID,918.164,VALID,0,VALID,99.9303,VALID,-0.0339617,VALID,19.7509,VALID,347,VALID,0.343395,
2004-08-10, 02:10:00,VALID,918.151,VALID,0,VALID,99.9036,VALID,-0.0509425,VALID,19.7189,VALID,347,VALID,0.240371,
2004-08-10, 02:11:00,VALID,918.151,VALID,0,VALID,99.8566,VALID,-0.0679233,VALID,19.6838,VALID,347,VALID,0.350472,
2004-08-10, 02:12:00,VALID,918.152,VALID,0,VALID,99.8515,VALID,-0.0509425,VALID,19.6419,VALID,347,VALID,0.306212,
2004-08-10, 02:13:00,VALID,918.143,VALID,0,VALID,99.854,VALID,-0.0509425,VALID,19.6198,VALID,111,VALID,0.363186,
2004-08-10, 02:14:00,VALID,918.129,VALID,0,VALID,99.8655,VALID,0,VALID,19.5872,VALID,115,VALID,0.256669,
2004-08-10, 02:15:00,VALID,918.117,VALID,0,VALID,99.9415,VALID,-0.0169808,VALID,19.5547,VALID,115,VALID,0.545967,
2004-08-10, 02:16:00,VALID,918.086,VALID,0,VALID,100,VALID,-0.0679233,VALID,19.5616,VALID,115,VALID,0.696403,
2004-08-10, 02:17:00,VALID,918.062,VALID,0,VALID,100,VALID,-0.0679233,VALID,19.5808,VALID,114,VALID,0.734557,
2004-08-10, 02:18:00,VALID,918.041,VALID,0,VALID,100,VALID,0,VALID,19.6193,VALID,114,VALID,0.725654,
2004-08-10, 02:19:00,VALID,918.035,VALID,0,VALID,100,VALID,0,VALID,19.6223,VALID,114,VALID,0.577592,
2004-08-10, 02:20:00,VALID,918.034,VALID,0,VALID,100,VALID,-0.0339617,VALID,19.626,VALID,114,VALID,0.219113,
2004-08-10, 02:21:00,VALID,918.034,VALID,0,VALID,100,VALID,-0.0169808,VALID,19.6096,VALID,114,VALID,0.19375,
2004-08-10, 02:22:00,VALID,918.026,VALID,0,VALID,100,VALID,0,VALID,19.6059,VALID,114,VALID,0.178977,
2004-08-10, 02:23:00,VALID,918.041,VALID,0,VALID,100,VALID,-0.0679233,VALID,19.5902,VALID,114,VALID,0.00200321,
2004-08-10, 02:24:00,VALID,918.036,VALID,0,VALID,100,VALID,-0.0679233,VALID,19.5708,VALID,114,VALID,0.0014881,
2004-08-10, 02:25:00,VALID,918.032,VALID,0,VALID,100,VALID,-0.0849042,VALID,19.5289,VALID,114,VALID,0.0078125,
2004-08-10, 02:26:00,VALID,918.023,VALID,0,VALID,100,VALID,-0.0679233,VALID,19.4971,VALID,114,VALID,0.0944767,
2004-08-10, 02:27:00,VALID,918.017,VALID,0,VALID,99.9484,VALID,-0.0509425,VALID,19.4097,VALID,114,VALID,0,
2004-08-10, 02:28:00,VALID,918.024,VALID,0,VALID,99.4687,VALID,-0.0679233,VALID,19.2028,VALID,114,VALID,0,
2004-08-10, 02:29:00,VALID,918.03,VALID,0,VALID,99.3556,VALID,-0.0849042,VALID,19.0483,VALID,88,VALID,0.280878,
2004-08-10, 02:30:00,VALID,918.029,VALID,0,VALID,99.5616,VALID,-0.0339617,VALID,18.9805,VALID,30,VALID,0.717383,
2004-08-10, 02:31:00,VALID,918.035,VALID,0,VALID,99.9903,VALID,-0.0849042,VALID,19.019,VALID,25,VALID,0.650436,
2004-08-10, 02:32:00,VALID,918.044,VALID,0,VALID,100,VALID,-0.0509425,VALID,19.029,VALID,30,VALID,0.683594,
2004-08-10, 02:33:00,VALID,918.061,VALID,0,VALID,100,VALID,-0.0679233,VALID,19.0511,VALID,38,VALID,0.534201,
2004-08-10, 02:34:00,VALID,918.054,VALID,0,VALID,100,VALID,-0.101885,VALID,19.1,VALID,49,VALID,0.365234,
2004-08-10, 02:35:00,VALID,918.042,VALID,0,VALID,100,VALID,-0.101885,VALID,19.1581,VALID,49,VALID,0.132254,
2004-08-10, 02:36:00,VALID,918.043,VALID,0,VALID,100,VALID,-0.101885,VALID,19.1742,VALID,49,VALID,0.00706845,
2004-08-10, 02:37:00,VALID,918.037,VALID,0,VALID,100,VALID,-0.0849042,VALID,19.1844,VALID,49,VALID,0.290972,
2004-08-10, 02:38:00,VALID,918.014,VALID,0,VALID,100,VALID,-0.101885,VALID,19.1879,VALID,49,VALID,0.34484,
2004-08-10, 02:39:00,VALID,918.019,VALID,0,VALID,100,VALID,-0.101885,VALID,19.1844,VALID,49,VALID,0.410252,
2004-08-10, 02:40:00,VALID,918.008,VALID,0,VALID,100,VALID,-0.0849042,VALID,19.2038,VALID,49,VALID,0.535417,
2004-08-10, 02:41:00,VALID,917.997,VALID,0,VALID,100,VALID,-0.0849042,VALID,19.2552,VALID,49,VALID,0.567224,
2004-08-10, 02:42:00,VALID,918.013,VALID,0,VALID,100,VALID,-0.101885,VALID,19.3394,VALID,49,VALID,0.501302,
2004-08-10, 02:43:00,VALID,918.025,VALID,0,VALID,100,VALID,-0.101885,VALID,19.4042,VALID,49,VALID,0.391897,
2004-08-10, 02:44:00,VALID,918.037,VALID,0,VALID,100,VALID,-0.101885,VALID,19.4531,VALID,49,VALID,0.244792,
2004-08-10, 02:45:00,VALID,918.049,VALID,0,VALID,100,VALID,-0.101885,VALID,19.4819,VALID,49,VALID,0.0100446,
2004-08-10, 02:46:00,VALID,918.043,VALID,0,VALID,100,VALID,-0.101885,VALID,19.4914,VALID,49,VALID,0,
2004-08-10, 02:47:00,VALID,918.047,VALID,0,VALID,100,VALID,-0.0849042,VALID,19.4685,VALID,49,VALID,0,
2004-08-10, 02:48:00,VALID,918.029,VALID,0,VALID,100,VALID,-0.0849042,VALID,19.4653,VALID,49,VALID,0,
2004-08-10, 02:49:00,VALID,918.029,VALID,0,VALID,100,VALID,-0.101885,VALID,19.4782,VALID,49,VALID,0,
2004-08-10, 02:50:00,VALID,918.024,VALID,0,VALID,100,VALID,-0.101885,VALID,19.504,VALID,49,VALID,0,
2004-08-10, 02:51:00,VALID,918.015,VALID,0,VALID,100,VALID,-0.101885,VALID,19.5331,VALID,49,VALID,0,
2004-08-10, 02:52:00,VALID,918.011,VALID,0,VALID,100,VALID,-0.101885,VALID,19.546,VALID,49,VALID,0.0375744,
2004-08-10, 02:53:00,VALID,917.995,VALID,0,VALID,100,VALID,-0.0679233,VALID,19.5487,VALID,49,VALID,0.288876,
2004-08-10, 02:54:00,VALID,917.981,VALID,0,VALID,100,VALID,0,VALID,19.5738,VALID,49,VALID,0.246911,
2004-08-10, 02:55:00,VALID,917.972,VALID,0,VALID,100,VALID,0,VALID,19.5994,VALID,49,VALID,0.205124,
2004-08-10, 02:56:00,VALID,917.969,VALID,0,VALID,100,VALID,0,VALID,19.6282,VALID,49,VALID,0.160156,
2004-08-10, 02:57:00,VALID,917.969,VALID,0,VALID,100,VALID,0.0339617,VALID,19.6473,VALID,49,VALID,0.0987043,
2004-08-10, 02:58:00,VALID,917.975,VALID,0,VALID,100,VALID,0.0169808,VALID,19.6734,VALID,49,VALID,0,
2004-08-10, 02:59:00,VALID,917.975,VALID,0,VALID,100,VALID,-0.0169808,VALID,19.7062,VALID,49,VALID,0,
2004-08-10, 03:00:00,VALID,917.975,VALID,0,VALID,100,VALID,0,VALID,19.6963,VALID,49,VALID,0,
2004-08-10, 03:01:00,VALID,917.982,VALID,0,VALID,100,VALID,0,VALID,19.6804,VALID,49,VALID,0,
2004-08-10, 03:02:00,VALID,917.975,VALID,0,VALID,100,VALID,0.0339617,VALID,19.6829,VALID,49,VALID,0,
2004-08-10, 03:03:00,VALID,917.963,VALID,0,VALID,100,VALID,0.0339617,VALID,19.6995,VALID,49,VALID,0.12064,
2004-08-10, 03:04:00,VALID,917.953,VALID,0,VALID,100,VALID,-0.0169808,VALID,19.7251,VALID,49,VALID,0.228906,
2004-08-10, 03:05:00,VALID,917.959,VALID,0,VALID,100,VALID,0,VALID,19.7218,VALID,49,VALID,0.252232,
2004-08-10, 03:06:00,VALID,917.952,VALID,0,VALID,100,VALID,0.0169808,VALID,19.729,VALID,49,VALID,0.00436047,
2004-08-10, 03:07:00,VALID,917.956,VALID,0,VALID,100,VALID,0,VALID,19.7221,VALID,49,VALID,0.176054,
2004-08-10, 03:08:00,VALID,917.965,VALID,0,VALID,100,VALID,0,VALID,19.7221,VALID,49,VALID,0.0224848,
2004-08-10, 03:09:00,VALID,917.977,VALID,0,VALID,100,VALID,0,VALID,19.7221,VALID,49,VALID,0,
2004-08-10, 03:10:00,VALID,917.974,VALID,0,VALID,100,VALID,0,VALID,19.7186,VALID,49,VALID,0.204397,
2004-08-10, 03:11:00,VALID,917.966,VALID,0,VALID,100,VALID,0.0339617,VALID,19.7119,VALID,49,VALID,0.177024,
2004-08-10, 03:12:00,VALID,917.956,VALID,0,VALID,100,VALID,0,VALID,19.7156,VALID,49,VALID,0.418555,
2004-08-10, 03:13:00,VALID,917.952,VALID,0,VALID,100,VALID,0,VALID,19.6896,VALID,44,VALID,0.509909,
2004-08-10, 03:14:00,VALID,917.938,VALID,0,VALID,100,VALID,0.0169808,VALID,19.6704,VALID,37,VALID,0.524826,
2004-08-10, 03:15:00,VALID,917.926,VALID,0,VALID,100,VALID,0.0169808,VALID,19.6508,VALID,45,VALID,0.544207,
2004-08-10, 03:16:00,VALID,917.919,VALID,0,VALID,100,VALID,0.0169808,VALID,19.6416,VALID,45,VALID,0.244234,
2004-08-10, 03:17:00,VALID,917.903,VALID,0,VALID,100,VALID,0,VALID,19.6215,VALID,45,VALID,0.260099,
2004-08-10, 03:18:00,VALID,917.887,VALID,0,VALID,100,VALID,0,VALID,19.6121,VALID,76,VALID,0.393483,
2004-08-10, 03:19:00,VALID,917.882,VALID,0,VALID,100,VALID,0.0339617,VALID,19.6019,VALID,133,VALID,0.631925,
2004-08-10, 03:20:00,VALID,917.874,VALID,0,VALID,100,VALID,0,VALID,19.5992,VALID,147,VALID,0.703307,
2004-08-10, 03:21:00,VALID,917.86,VALID,0,VALID,100,VALID,0.0169808,VALID,19.5798,VALID,147,VALID,0.615278,
2004-08-10, 03:22:00,VALID,917.874,VALID,0,VALID,100,VALID,0,VALID,19.582,VALID,139,VALID,0.568824,
2004-08-10, 03:23:00,VALID,917.865,VALID,0,VALID,100,VALID,0.0169808,VALID,19.5795,VALID,138,VALID,0.48601,
2004-08-10, 03:24:00,VALID,917.875,VALID,0,VALID,100,VALID,0.0169808,VALID,19.5989,VALID,138,VALID,0.295201,
2004-08-10, 03:25:00,VALID,917.893,VALID,0,VALID,100,VALID,0,VALID,19.6188,VALID,138,VALID,0.0616122,
2004-08-10, 03:26:00,VALID,917.886,VALID,0,VALID,100,VALID,0,VALID,19.6314,VALID,138,VALID,0.113095,
2004-08-10, 03:27:00,VALID,917.883,VALID,0,VALID,100,VALID,-0.0169808,VALID,19.6545,VALID,138,VALID,0.171875,
2004-08-10, 03:28:00,VALID,917.902,VALID,0,VALID,100,VALID,0.0169808,VALID,19.6478,VALID,138,VALID,0.13941,
2004-08-10, 03:29:00,VALID,917.895,VALID,0,VALID,100,VALID,0,VALID,19.6476,VALID,138,VALID,0.0559896,
2004-08-10, 03:30:00,VALID,917.904,VALID,0,VALID,100,VALID,0.0169808,VALID,19.6314,VALID,138,VALID,0.000744048,
2004-08-10, 03:31:00,VALID,917.91,VALID,0,VALID,100,VALID,0,VALID,19.6312,VALID,138,VALID,0.000186012,
2004-08-10, 03:32:00,VALID,917.905,VALID,0,VALID,100,VALID,0,VALID,19.6277,VALID,138,VALID,0,
2004-08-10, 03:33:00,VALID,917.905,VALID,0,VALID,100,VALID,0,VALID,19.6379,VALID,138,VALID,0,
2004-08-10, 03:34:00,VALID,917.891,VALID,0,VALID,100,VALID,0.0169808,VALID,19.6285,VALID,138,VALID,0,
2004-08-10, 03:35:00,VALID,917.893,VALID,0,VALID,100,VALID,0,VALID,19.6185,VALID,138,VALID,0,
2004-08-10, 03:36:00,VALID,917.88,VALID,0,VALID,100,VALID,0,VALID,19.6218,VALID,138,VALID,0,
2004-08-10, 03:37:00,VALID,917.876,VALID,0,VALID,100,VALID,0,VALID,19.6091,VALID,138,VALID,0,
2004-08-10, 03:38:00,VALID,917.868,VALID,0,VALID,100,VALID,0,VALID,19.6059,VALID,138,VALID,0,
2004-08-10, 03:39:00,VALID,917.865,VALID,0,VALID,100,VALID,0.0169808,VALID,19.5897,VALID,138,VALID,0,
2004-08-10, 03:40:00,VALID,917.862,VALID,0,VALID,100,VALID,0,VALID,19.5701,VALID,138,VALID,0.0191592,
2004-08-10, 03:41:00,VALID,917.875,VALID,0,VALID,100,VALID,0,VALID,19.5507,VALID,138,VALID,0.0807927,